Terug naar catalogus

STARLINK-37677

ActiefCommunicatieVLEO
NORAD 100051·PAYLOAD·🇺🇸 United States

Gelanceerd Jul 14, 2026 vanaf Cape Canaveral Space Force Station

Loading…

Volgende Passages (komende 24 uur)

TLE

VersSource: Space-Track

Epoch: Sep 14, 2026, 15:44 UTC

1 A0051U 26161Z   26257.65597513  .00032256  00000-0  96109-3 0  9991
2 A0051  53.1598  25.0012 0002259  97.7489 262.3770 15.34418690  9716

Volg STARLINK-37677 in realtime met AllMySat

Download on the App Store